Weather Roundup
Issued by NWS Chicago, IL

Home | Current Version | Previous Version | Graphics & Text | Print | Product List | Glossary On
Versions: 1 2 3 4 5 6 7 8 9 10 11 12 13 14 15 16 17 18 19 20 21 22 23 24 25 26 27 28 29 30 31 32 33 34 35 36 37 38 39 40 41 42 43 44 45 46 47 48 49 50
000
NZUS59 KLOT 071408
HRRLOT

CHICAGO AREA WEATHER ROUNDUP
NATIONAL WEATHER SERVICE CHICAGO/ROMEOVILLE IL
800 AM CST WED DEC 07 2016

NOTE: "FAIR" INDICATES FEW OR NO CLOUDS BELOW 12,000 FEET WITH NO
SIGNIFICANT WEATHER AND/OR OBSTRUCTIONS TO VISIBILITY.

* THESE STATIONS ARE NOT UNDER NWS QUALITY CONTROL. THEY ALSO MAY NOT
  REPORT WEATHER SUCH AS PRECIPITATION OR FOG.

ILZ005-006-012>014-019>023-071500-
NORTHEAST ILLINOIS

CITY           SKY/WX    TMP DP  RH WIND       PRES   REMARKS
OHARE          CLOUDY    24  16  71 W15G23    30.07R WCI  11
MIDWAY         CLOUDY    26  16  65 W14       30.07S WCI  14
AURORA         MOCLDY    24  17  74 W15       30.09R WCI  11
LANSING*       CLOUDY    26  21  79 W10G16    30.08S WCI  17
JOLIET*        CLOUDY    27  20  75 W7        30.10S WCI  19
WAUKEGAN       CLOUDY    23  16  74 W10G18    30.04R WCI  12
DUPAGE AIRPORT PTCLDY    23  15  71 W14       30.07R WCI  11
WHEELING       PTCLDY    24  15  68 W12G21    30.08R WCI  13
KANKAKEE*      CLOUDY    28  21  74 W13       30.10S WCI  17
MORRIS*        CLOUDY    26  20  79 W9G20     30.09S WCI  16
LEWIS AIRPORT* CLOUDY    25  21  85 W12G18    30.09S WCI  14
NORTHERLY ISL    N/A     27  18  69 W9          N/A  WCI  18
$$

WIZ051-052-058>065-066-070>072-071500-
SOUTHEAST WISCONSIN

CITY           SKY/WX    TMP DP  RH WIND       PRES   REMARKS
MILWAUKEE      MOCLDY    23  14  68 W15G22    30.01R WCI  10
KENOSHA*       MOCLDY    23  16  74 W18G25    30.03R WCI   9
RACINE*        MOCLDY    22  14  71 W10G25    30.03R WCI  11
BURLINGTON     CLOUDY    21  16  81 W12G18    30.03S WCI   9
WAUKESHA       PTCLDY    19  14  79 W16G24    30.00S WCI   5
WEST BEND      PTCLDY    21  18  86 W14G22    29.96S WCI   8
$$

INZ001>003-010>013-019-020-071500-
NORTHWEST INDIANA

CITY           SKY/WX    TMP DP  RH WIND       PRES   REMARKS
GARY*          CLOUDY    28  19  69 W12G23    30.08S WCI  18
MICHIGAN CITY* NOT AVBL
RENSSELAER*    NOT AVBL
VALPARAISO     CLOUDY    28  19  69 W12       30.07R WCI  18
$$

LMZ740>746-071500-
SOUTHERN LAKE MICHIGAN

STATION/POSITION TIME  SKY/WX   TEMP WIND        PRES    VSBY
                                AIR  DIR/SP/G
                 (UTC)          (F)  (DEG/KT/KT) (MB)    (MI)
HARRISON CRIB    1340            27  270/ 18/ 20   N/A
BURNHAM HARBOR   1400            27  290/  6/ 15   N/A
CALUMET HARBOR   1330            26  240/  7/ 13 1017.8R
BURNS HARBOR     1340            29  250/ 14/ 17 1018.6S
MICHIGAN CITY    1340            30  220/ 18/ 23   N/A
$$

ABBREVIATIONS USED IN REMARKS
   TC - TEMPERATURE IN CELSIUS
  WCI - WIND CHILL INDEX
   HX - HEAT INDEX
  VSB - VISIBILITY
$$




USA.gov is the U.S. government's official web portal to all federal, state and local government web resources and services.